Regional Weather Roundup
Issued by NWS Tiyan, Guam

Home | Current Version | Previous Version | Text Only | Print | Product List | Glossary On
Versions: 1 2 3 4 5 6 7 8 9 10 11 12 13 14 15 16 17 18 19 20 21 22 23 24 25 26 27 28 29 30 31 32 33 34 35 36 37 38 39 40 41 42 43 44 45 46 47
000
ASGM40 PGUM 230912
RWRGUM
WEATHER ROUNDUP FOR THE MARIANAS
NATIONAL WEATHER SERVICE TIYAN GU
700 PM CHST TUE SEP 23 2014

GUZ001>004-231000-
MARIANA ISLANDS-

CITY           SKY/WX    TMP DP  RH WIND       PRES   REMARKS
GUAM AIRPORT   LGT RAIN  77  75  94 SW9       29.73S
ANDERSEN AFB   DRIZZLE   77  75  94 W12       29.73R
ROTA AIRPORT   MOCLDY    77  75  94 W8        29.70R
TINIAN AP      MOCLDY    81  79  94 N7        29.65R
SAIPAN AP      PTCLDY    82  77  83 N9        29.66R HX  91

$$



USA.gov is the U.S. government's official web portal to all federal, state and local government web resources and services.